• Processing (Info)

  • MPEC 2013-K44 : 2013 KY5

    The following Minor Planet Electronic Circular may be linked-to from your own Web pages, but must not otherwise be redistributed electronically.

    A form allowing access to any MPEC is at the bottom of this page.


    Read MPEC 2013-K43 Read MPEC 2013-K45


    M.P.E.C. 2013-K44                                Issued 2013 May 29, 17:26 UT
    
         The Minor Planet Electronic Circulars contain information on unusual
             minor planets and routine data on comets.  They are published
       on behalf of Commission 20 of the International Astronomical Union by the
              Minor Planet Center, Smithsonian Astrophysical Observatory,
                              Cambridge, MA 02138, U.S.A.
    
                 Prepared using the Tamkin Foundation Computer Network
    
                                  MPC@CFA.HARVARD.EDU
                URL https://www.minorplanetcenter.net/    ISSN 1523-6714
    
                                       2013 KY5
    
    Observations:
         K13K05Y* C2013 05 21.26000 15 36 12.81 +14 21 25.8          20.6 VuEK044G96
         K13K05Y  C2013 05 21.26591 15 36 12.02 +14 21 18.4          21.0 VuEK044G96
         K13K05Y  C2013 05 21.27189 15 36 11.19 +14 21 11.3          21.5 VuEK044G96
         K13K05Y  C2013 05 21.27772 15 36 10.44 +14 21 05.4          21.3 VuEK044G96
         K13K05Y KC2013 05 21.37895 15 35 57.14 +14 19 01.8          20.5 RoEK044291
         K13K05Y KC2013 05 21.38334 15 35 56.53 +14 18 56.7          20.5 RoEK044291
         K13K05Y KC2013 05 21.38774 15 35 55.99 +14 18 50.7          20.7 RoEK044291
         K13K05Y  C2013 05 22.23207 15 34 10.20 +14 01 45.6          20.5 VuEK044G96
         K13K05Y  C2013 05 22.23451 15 34 09.87 +14 01 42.1          20.9 VuEK044G96
         K13K05Y  C2013 05 22.23688 15 34 09.58 +14 01 39.4          21.1 VuEK044G96
         K13K05Y  C2013 05 22.38676 15 33 50.43 +13 58 36.5          21.0 VuEK044G96
         K13K05Y  C2013 05 22.39059 15 33 49.93 +13 58 32.1          21.4 VuEK044G96
         K13K05Y  C2013 05 22.39439 15 33 49.46 +13 58 26.6          20.7 VuEK044G96
         K13K05Y  C2013 05 22.39819 15 33 48.99 +13 58 22.0          21.1 VuEK044G96
         K13K05Y KC2013 05 29.25425 15 21 10.21 +11 37 02.4          20.7 RoEK044291
         K13K05Y KC2013 05 29.25765 15 21 09.89 +11 36 58.3          21.0 RoEK044291
         K13K05Y KC2013 05 29.26105 15 21 09.53 +11 36 53.7          20.4 RoEK044291
    
    Observer details:
    291 LPL/Spacewatch II.  Observers J. V. Scotti, T. H. Bressi.  1.8-m f/2.7
        reflector + CCD.
    G96 Mt. Lemmon Survey.  Observer A. R. Gibbs.  Measurers A. Boattini,
        E. J. Christensen, A. R. Gibbs, A. D. Grauer, R. E. Hill, J. A. Johnson,
        R. A. Kowalski, S. M. Larson, R. H. McNaught, F. C. Shelly.  1.5-m
        reflector + CCD.
    
    Orbital elements:
    2013 KY5                                                 Earth MOID = 0.3110 AU
    Epoch 2013 Apr. 18.0 TT = JDT 2456400.5                 MPC
    M  33.71257              (2000.0)            P               Q
    n   0.39765100     Peri.    7.79817     -0.28873512     -0.89635294
    a   1.8314764      Node    99.46495     +0.85897058     -0.39772457
    e   0.6528898      Incl.   19.94212     +0.42284936     +0.19587385
    P   2.48           H   19.4           G   0.15           U   8
    Residuals in seconds of arc
    130521 G96  0.2+  0.2-    130521 291  0.3+  0.4-    130522 G96  0.2+  0.4-
    130521 G96  0.1+  0.4-    130522 G96  0.2-  0.4+    130522 G96  0.3+  0.3-
    130521 G96  0.5-  0.3-    130522 G96  0.4-  0.2-    130529 291  0.2-  0.0
    130521 G96  0.2-  0.8+    130522 G96  0.2-  0.0     130529 291  0.2+  0.2+
    130521 291  0.3+  0.0     130522 G96  0.2+  0.1+    130529 291  0.0   0.2-
    130521 291  0.2-  0.3+    130522 G96  0.0   0.4+
    
    Ephemeris:
    2013 KY5                 a,e,i = 1.83, 0.65, 20                  q = 0.6357
    Date    TT    R. A. (2000) Decl.     Delta      r     Elong.  Phase     V
    2013 04 29    16 36 25.4 +20 25 54   0.6263  1.5030   132.5    29.6    20.6
    ...
    2013 05 14    15 53 18.4 +16 42 13   0.7159  1.6444   144.0    21.2    20.8
    ...
    2013 05 22    15 34 39.0 +14 06 32   0.7848  1.7161   145.2    19.7    21.0
    ...
    2013 05 28    15 23 15.9 +12 03 08   0.8461  1.7683   143.8    19.8    21.3
    2013 05 29    15 21 35.3 +11 42 23   0.8571  1.7769   143.4    19.9    21.3
    2013 05 30    15 19 58.3 +11 21 38   0.8684  1.7854   143.0    20.0    21.4
    ...
    2013 06 05    15 11 33.6 +09 17 48   0.9401  1.8358   139.8    20.9    21.6
    ...
    2013 06 13    15 03 33.5 +06 37 24   1.0467  1.9008   134.4    22.5    22.0
    ...
    2013 06 28    14 56 55.3 +02 01 09   1.2746  2.0165   122.9    25.0    22.6
    
    A. U. Tomatic                (C) Copyright 2013 MPC           M.P.E.C. 2013-K44
    

    Read MPEC 2013-K43 Read MPEC 2013-K45


    MPEC number:

    Enter an MPEC number in one of the following forms:

    • 1997-B01 (the full form)
    • J97B01 (the packed version of the full form)
    • B01 (the abbreviated form)